This is the latest recevied weather packets stored in our database for station/object EA1CZ-10. If no packets are shown the sender has not sent any weather packets the latest 10 day(s).
| Time | Temp. | Humidity | Pressure | Rain* | Wind** | Luminosity | Snow |
|---|---|---|---|---|---|---|---|
| 1777932284 | 6.67° C | 69% | 1028.3 hPa | - | - | - | - |
| 1777930484 | 7.22° C | 69% | 1028.4 hPa | - | - | - | - |
| 1777928684 | 7.22° C | 69% | 1028.4 hPa | - | - | - | - |
| 1777926884 | 6.67° C | 69% | 1028.4 hPa | - | - | - | - |
| 1777925084 | 5° C | 70% | 1028.2 hPa | - | - | - | - |
| 1777923284 | 4.44° C | 70% | 1028 hPa | - | - | - | - |
| 1777921483 | 2.78° C | 70% | 1027.8 hPa | - | - | - | - |
| 1777919683 | 2.78° C | 70% | 1027.8 hPa | - | - | - | - |
| 1777917883 | 8.33° C | 68% | 1027.9 hPa | - | - | - | - |
| 1777916083 | 8.33° C | 68% | 1027.6 hPa | - | - | - | - |
| 1777914283 | 3.89° C | 69% | 1027.8 hPa | - | - | - | - |
| 1777912483 | 11.67° C | 67% | 1027.4 hPa | - | - | - | - |
| 1777910683 | 12.22° C | 67% | 1027.3 hPa | - | - | - | - |
| 1777908883 | 14.44° C | 66% | 1027 hPa | - | - | - | - |
| 1777905308 | 16.11° C | 66% | 1027.2 hPa | - | - | - | - |
| 1777903508 | 16.11° C | 66% | 1027.3 hPa | - | - | - | - |
| 1777901708 | 15.56° C | 66% | 1027.3 hPa | - | - | - | - |
| 1777899908 | 16.67° C | 66% | 1027.4 hPa | - | - | - | - |
| 1777898108 | 15° C | 67% | 1027.5 hPa | - | - | - | - |
| 1777896307 | 14.44° C | 68% | 1027.7 hPa | - | - | - | - |
| 1777894507 | 12.22° C | 69% | 1027.9 hPa | - | - | - | - |
| 1777892706 | 12.78° C | 68% | 1028 hPa | - | - | - | - |
| 1777890906 | 12.22° C | 68% | 1028.2 hPa | - | - | - | - |
| 1777889106 | 10° C | 69% | 1028.3 hPa | - | - | - | - |
| 1777887306 | 11.11° C | 69% | 1028 hPa | - | - | - | - |
* Rain since midnight (hover to see other rain measurements)
** Current wind speed in m/s (hover to see current wind gust speed)